User: anonymous   Login
Location: Harbor Island
(32.3990°N, 80.4435°W)
Time: 14:50:34
(UTC-04:00)
Language:

Cosmos 1455 - Orbit

View from above orbital plane
View from above orbital plane
View from above satellite
View from above satellite

Ground track
Ground track

The orbit data is extracted from the following two-line orbital elements,

1 14032U 83037A   15087.32047979  .00007256  00000-0  39806-3 0  9992
2 14032 082.5196 167.4238 0018571 209.4980 262.6500 15.13859292738394
Epoch (UTC): 28 March 2015 07:41:29
Eccentricity: 0.0018571
inclination: 82.5196°
perigee height: 511 km
apogee height: 537 km
right ascension of ascending node: 167.4238°
argument of perigee: 209.4980°
revolutions per day: 15.13859292
mean anomaly at epoch: 262.6500°
orbit number at epoch: 73839

The dashed part of the orbit path shows where the satellite is in the earth's shadow,  

DLR